Location: Karcze
(52.0945°N, 22.4786°E)
Time: 12:49:01
(UTC+00:00)

Cosmos 407 Rocket - Pass Details

Date: 14 July 2020
Orbit: 744 x 786 km, 74.0° (Epoch: 07 August)

Event Time Altitude Azimuth Distance (km) Brightness Sun altitude
Exits shadow 00:55:14 13° 218° (SW) 2,115 5.1 -10.3°
Maximum altitude 00:59:56 65° 299° (WNW) 869 3.8 -9.9°
Drops below altitude 10° 01:05:17 10° 21° (NNE) 2,357 7.5 -9.4°
Sets 01:07:42 0° 25° (NNE) 3,287 8.8 -9.2°
